Weather History for KIEN - July, 2013

Change the Weather History Date:

Saturday, July 27, 2013

  Actual Average Record
Temperature  
Mean Temperature 65 °F 75 °F  
Max Temperature 75 °F 91 °F 100 °F (2006)
Min Temperature 54 °F 59 °F 41 °F (2005)
Degree Days  
Heating Degree Days 0 0  
Month to date heating degree days 2 4  
Since 1 June heating degree days 80 91  
Since 1 July heating degree days 2 4  
Cooling Degree Days 0 10  
Month to date cooling degree days 256 239  
Year to date cooling degree days 356 366  
Since 1 June cooling degree days 339 349  
Growing Degree Days 14 (Base 50)    
Moisture  
Dew Point 49 °F    
Average Humidity 63    
Maximum Humidity 83    
Minimum Humidity 43    
Precipitation  
Precipitation 0.00 in 0.08 in 0.06 in (2012)
Month to date precipitation 1.62 1.91  
Year to date precipitation 11.49 11.58  
Sea Level Pressure  
Sea Level Pressure 30.07 in    
Wind  
Wind Speed 9 mph (SE)    
Max Wind Speed 16 mph    
Max Gust Speed 22 mph    
Visibility 10 miles    
Events      
T = Trace of Precipitation, MM = Missing Value Source: NWS Daily Summary

Daily Weather History Graph

Daily Weather History Graph

Search for Another Location

Airport or City:

Trip Planner

Search our weather history database for the weather conditions in past years. The results will help you decide how hot, cold, wet, or windy it might be!

Date:

Astronomy

Jul. 27, 2013 Rise Set
Actual Time 5:36 AM MDT 8:16 PM MDT
Civil Twilight 5:03 AM MDT 8:49 PM MDT
Nautical Twilight 4:22 AM MDT 9:30 PM MDT
Astronomical Twilight 3:34 AM MDT 10:17 PM MDT
Moon 10:53 PM MDT (7/27) 11:29 AM MDT (7/27)
Length of Visible Light 15h 45m
Length of Day
14h 40m
Waning Gibbous, 70% of the Moon is Illuminated
Jul 27
Waning Gibbous
Jul 29
Last Quarter
Aug 6
New
Aug 14
First Quarter
Aug 20
Full

Hourly Weather History & Observations

Time (MDT) Temp. Dew Point Humidity Pressure Visibility Wind Dir Wind Speed Gust Speed Precip Events Conditions
12:52 AM 54.0 °F 48.0 °F 80% 30.18 in 10.0 mi ENE 6.9 mph - N/A   Scattered Clouds
1:52 AM 55.0 °F 48.9 °F 80% 30.16 in 10.0 mi East 6.9 mph - N/A   Overcast
2:52 AM 57.0 °F 48.0 °F 72% 30.14 in 10.0 mi East 6.9 mph - N/A   Overcast
3:52 AM 57.0 °F 48.0 °F 72% 30.12 in 10.0 mi East 6.9 mph - N/A   Overcast
4:52 AM 57.0 °F 46.0 °F 67% 30.12 in 10.0 mi East 6.9 mph - N/A   Overcast
5:52 AM 55.9 °F 46.0 °F 69% 30.12 in 10.0 mi East 9.2 mph - N/A   Mostly Cloudy
6:52 AM 57.9 °F 46.0 °F 65% 30.13 in 10.0 mi East 9.2 mph - N/A   Clear
7:52 AM 60.1 °F 46.0 °F 60% 30.13 in 10.0 mi ESE 9.2 mph - N/A   Clear
8:52 AM 63.0 °F 46.0 °F 54% 30.13 in 10.0 mi East 15.0 mph - N/A   Clear
9:52 AM 66.9 °F 46.9 °F 49% 30.13 in 10.0 mi East 11.5 mph - N/A   Clear
10:52 AM 66.9 °F 48.0 °F 51% 30.12 in 10.0 mi ESE 9.2 mph - N/A   Overcast
11:52 AM 64.9 °F 48.0 °F 54% 30.13 in 10.0 mi ESE 6.9 mph - N/A   Overcast
12:52 PM 70.0 °F 48.0 °F 46% 30.10 in 10.0 mi East 9.2 mph - N/A   Overcast
1:52 PM 69.1 °F 48.9 °F 49% 30.06 in 10.0 mi SE 12.7 mph 20.7 mph N/A   Scattered Clouds
2:52 PM 75.0 °F 51.1 °F 43% 30.03 in 10.0 mi South 10.4 mph - N/A   Mostly Cloudy
3:52 PM 73.0 °F 51.1 °F 46% 30.01 in 10.0 mi SSE 10.4 mph - N/A   Overcast
4:52 PM 73.0 °F 52.0 °F 48% 29.99 in 10.0 mi SSE 9.2 mph - N/A   Partly Cloudy
5:52 PM 72.0 °F 52.0 °F 49% 29.99 in 10.0 mi SSE 8.1 mph - N/A   Scattered Clouds
6:52 PM 71.1 °F 52.0 °F 51% 29.99 in 10.0 mi SSE 6.9 mph - N/A   Clear
7:52 PM 70.0 °F 53.1 °F 55% 30.00 in 10.0 mi South 9.2 mph - N/A   Overcast
8:52 PM 64.9 °F 53.1 °F 65% 29.99 in 10.0 mi South 9.2 mph - N/A   Clear
9:52 PM 62.1 °F 53.1 °F 72% 29.98 in 10.0 mi SE 3.5 mph - N/A   Clear
10:52 PM 63.0 °F 53.1 °F 70% 29.98 in 10.0 mi SSE 5.8 mph - N/A   Clear
11:52 PM 61.0 °F 53.1 °F 75% 29.99 in 10.0 mi South 4.6 mph - N/A   Clear